Weather History for Shreveport Downtown, LA

Change the Weather History Date:

Friday, February 8, 2013

  Actual Average (KSHV) Record (KSHV)
Temperature  
Mean Temperature 54 °F 49 °F  
Max Temperature 63 °F 60 °F 83 °F (1994)
Min Temperature 45 °F 38 °F 6 °F (1895)
Degree Days  
Heating Degree Days 10 16  
Month to date heating degree days 133  
Since 1 July heating degree days 1605  
Cooling Degree Days 0 0  
Month to date cooling degree days 0  
Year to date cooling degree days 4  
Growing Degree Days 4 (Base 50)    
Moisture  
Dew Point 48 °F    
Average Humidity 79    
Maximum Humidity 94    
Minimum Humidity 45    
Precipitation  
Precipitation 0.01 in 0.17 in 1.97 in (1935)
Month to date precipitation 1.32  
Year to date precipitation 5.52  
Snow  
Snow 0.00 in - - ()
Month to date snowfall  
Since 1 July snowfall  
Snow Depth -    
Sea Level Pressure  
Sea Level Pressure 30.12 in    
Wind  
Wind Speed 7 mph (North)    
Max Wind Speed 13 mph    
Max Gust Speed 22 mph    
Visibility 9 miles    
Events Rain    
T = Trace of Precipitation, MM = Missing Value Source: NWS Daily Summary

Daily Weather History Graph

Daily Weather History Graph

Search for Another Location

Airport:

Trip Planner

Search our weather history database for the weather conditions in past years. The results will help you decide how hot, cold, wet, or windy it might be!

Date:

Astronomy

Feb. 08, 2013 Rise Set
Actual Time 7:03 AM CST 5:54 PM CST
Civil Twilight 6:38 AM CST 6:20 PM CST
Nautical Twilight 6:09 AM CST 6:49 PM CST
Astronomical Twilight 5:40 AM CST 7:18 PM CST
Moon 5:30 AM CST (2/8) 4:30 PM CST (2/8)
Length of Visible Light 11h 41m
Length of Day
10h 50m
Waning Crescent, 3% of the Moon is Illuminated
Feb 8
Waning Crescent
Feb 10
New
Feb 17
First Quarter
Feb 25
Full
Mar 4
Last Quarter

Hourly Weather History & Observations

Time (CST) Temp. Windchill Dew Point Humidity Pressure Visibility Wind Dir Wind Speed Gust Speed Precip Events Conditions
12:51 AM 57.2 °F - 55.4 °F 94% 29.95 in 10.0 mi SW 5.8 mph - N/A   Mostly Cloudy
12:53 AM 57.9 °F - 55.9 °F 93% 29.95 in 10.0 mi SW 4.6 mph - N/A   Mostly Cloudy
1:48 AM 57.2 °F - 55.4 °F 94% 29.96 in 10.0 mi West 5.8 mph - N/A   Mostly Cloudy
1:53 AM 57.9 °F - 55.9 °F 93% 29.96 in 10.0 mi West 5.8 mph - N/A   Mostly Cloudy
2:29 AM 57.2 °F - 55.4 °F 94% 29.97 in 9.0 mi West 9.2 mph - N/A   Overcast
2:53 AM 57.9 °F - 55.9 °F 93% 29.98 in 10.0 mi NW 10.4 mph - N/A   Overcast
3:04 AM 57.2 °F - 55.4 °F 94% 29.99 in 10.0 mi NNW 9.2 mph 17.3 mph N/A   Overcast
3:21 AM 57.2 °F - 55.4 °F 94% 29.99 in 10.0 mi NNW 9.2 mph 18.4 mph N/A   Overcast
3:53 AM 57.9 °F - 53.1 °F 84% 30.01 in 10.0 mi North 11.5 mph 21.9 mph N/A   Overcast
4:53 AM 57.0 °F - 52.0 °F 83% 30.04 in 10.0 mi NW 10.4 mph - N/A   Overcast
5:53 AM 55.9 °F - 51.1 °F 84% 30.08 in 10.0 mi NW 9.2 mph 16.1 mph N/A   Overcast
6:12 AM 55.4 °F - 51.8 °F 88% 30.09 in 10.0 mi NNW 8.1 mph - N/A   Overcast
6:53 AM 54.0 °F - 52.0 °F 93% 30.12 in 7.0 mi NNW 5.8 mph - N/A   Overcast
7:12 AM 53.6 °F - 51.8 °F 94% 30.12 in 10.0 mi North 6.9 mph - N/A   Overcast
7:46 AM 53.6 °F - 51.8 °F 94% 30.14 in 8.0 mi NNW 5.8 mph - 0.00 in Rain Light Rain
7:53 AM 53.1 °F - 51.1 °F 93% 30.15 in 5.0 mi NNW 8.1 mph - 0.00 in Rain Light Rain
8:23 AM 53.6 °F - 51.8 °F 94% 30.16 in 4.0 mi NNW 10.4 mph 16.1 mph 0.01 in   Overcast
8:35 AM 53.6 °F - 51.8 °F 94% 30.16 in 4.0 mi NNW 10.4 mph - 0.01 in   Overcast
8:53 AM 53.1 °F - 51.1 °F 93% 30.17 in 3.0 mi NNW 12.7 mph 16.1 mph 0.01 in   Overcast
9:13 AM 53.6 °F - 51.8 °F 94% 30.18 in 5.0 mi North 4.6 mph - N/A   Overcast
9:33 AM 53.6 °F - 51.8 °F 94% 30.19 in 6.0 mi North 8.1 mph - N/A   Overcast
9:53 AM 54.0 °F - 51.1 °F 90% 30.19 in 7.0 mi North 6.9 mph - N/A   Overcast
9:59 AM 53.6 °F - 50.0 °F 88% 30.20 in 8.0 mi NNE 8.1 mph - N/A   Overcast
10:20 AM 55.4 °F - 46.4 °F 72% 30.20 in 10.0 mi NNE 8.1 mph - N/A   Overcast
10:33 AM 55.4 °F - 46.4 °F 72% 30.21 in 10.0 mi NNE 9.2 mph - N/A   Overcast
10:53 AM 55.9 °F - 46.9 °F 72% 30.21 in 10.0 mi NNE 8.1 mph - N/A   Overcast
11:43 AM 55.4 °F - 44.6 °F 67% 30.21 in 10.0 mi NE 9.2 mph - N/A   Overcast
11:53 AM 57.0 °F - 45.0 °F 64% 30.21 in 10.0 mi North 6.9 mph - N/A   Overcast
12:53 PM 59.0 °F - 45.0 °F 60% 30.19 in 10.0 mi ENE 5.8 mph - N/A   Overcast
1:53 PM 61.0 °F - 44.1 °F 54% 30.17 in 10.0 mi Variable 4.6 mph - N/A   Partly Cloudy
2:53 PM 62.1 °F - 42.1 °F 48% 30.16 in 10.0 mi Variable 4.6 mph - N/A   Clear
3:53 PM 63.0 °F - 41.0 °F 45% 30.16 in 10.0 mi Variable 6.9 mph - N/A   Clear
4:53 PM 62.1 °F - 42.1 °F 48% 30.16 in 10.0 mi NNE 6.9 mph - N/A   Clear
5:53 PM 57.9 °F - 39.0 °F 49% 30.15 in 10.0 mi East 6.9 mph - N/A   Clear
6:53 PM 55.9 °F - 39.0 °F 53% 30.18 in 10.0 mi ENE 3.5 mph - N/A   Clear
7:53 PM 53.1 °F - 39.0 °F 59% 30.20 in 10.0 mi ENE 3.5 mph - N/A   Clear
8:53 PM 51.1 °F - 39.0 °F 63% 30.20 in 10.0 mi ENE 6.9 mph - N/A   Clear
9:53 PM 50.0 °F - 37.9 °F 63% 30.21 in 10.0 mi East 6.9 mph - N/A   Clear
10:53 PM 46.9 °F - 37.9 °F 71% 30.20 in 10.0 mi East 5.8 mph - N/A   Clear
11:53 PM 45.0 °F 41.2 °F 37.9 °F 76% 30.21 in 10.0 mi East 6.9 mph - N/A   Clear